• In Italy
  • List of Countries
  • For 7 days
  • Water Temperature
  • Satellite Maps
  • Weather Map
  • Weather Widgets
  • user-avatar
    Login

    Hourly Weather Quito

    Today, 20 November, Monday

    Time Temperature Precipitation Wind Pressure Humidity
    00:00 +18°C° 0.7 mm 1 mps 622 mmHg 91%
    01:00 +18°C° 0.7 mm 1 mps 622 mmHg 91%
    02:00 +18°C° 0.3 mm 1 mps 622 mmHg 91%
    03:00 +18°C° 0.3 mm 1 mps 622 mmHg 91%
    04:00 +18°C° 0.3 mm 1 mps 622 mmHg 91%
    05:00 +18°C° 0.1 mm 1 mps 622 mmHg 89%
    06:00 +19°C° 0.1 mm 1 mps 623 mmHg 87%
    07:00 +19°C° 0.1 mm 1 mps 623 mmHg 85%
    08:00 +22°C° 0 mm 1 mps 624 mmHg 73%
    09:00 +24°C° 0 mm 2 mps 624 mmHg 62%
    10:00 +26°C° 0 mm 2 mps 625 mmHg 50%
    11:00 +26°C° 0 mm 2 mps 625 mmHg 49%
    12:00 +27°C° 0 mm 2 mps 624 mmHg 48%
    13:00 +27°C° 0 mm 2 mps 624 mmHg 47%
    14:00 +27°C° 0 mm 1 mps 624 mmHg 49%
    15:00 +27°C° 0 mm 1 mps 623 mmHg 50%
    16:00 +26°C° 0 mm 1 mps 623 mmHg 52%
    17:00 +25°C° 0 mm 1 mps 623 mmHg 58%
    18:00 +23°C° 0 mm 1 mps 622 mmHg 64%
    19:00 +21°C° 0 mm 1 mps 622 mmHg 70%
    20:00 +20°C° 1.4 mm 1 mps 622 mmHg 76%
    21:00 +20°C° 1.4 mm 1 mps 622 mmHg 82%
    22:00 +19°C° 1.4 mm 1 mps 623 mmHg 88%
    23:00 +19°C° 1.5 mm 1 mps 622 mmHg 89%

    Tomorrow, 21 November, Tuesday

    Time Temperature Precipitation Wind Pressure Humidity
    00:00 +18°C° 1.5 mm 1 mps 622 mmHg 91%
    01:00 +18°C° 1.5 mm 1 mps 622 mmHg 93%
    02:00 +18°C° 1.3 mm 1 mps 622 mmHg 93%
    03:00 +18°C° 1.3 mm 1 mps 622 mmHg 93%
    04:00 +18°C° 1.3 mm 1 mps 622 mmHg 93%
    05:00 +18°C° 0.7 mm 1 mps 622 mmHg 93%
    06:00 +18°C° 0.7 mm 1 mps 623 mmHg 92%
    07:00 +18°C° 0.7 mm 1 mps 623 mmHg 91%
    08:00 +19°C° 0.8 mm 1 mps 623 mmHg 88%
    09:00 +20°C° 0.8 mm 1 mps 624 mmHg 84%
    10:00 +21°C° 0.8 mm 1 mps 624 mmHg 81%
    11:00 +22°C° 1.1 mm 1 mps 624 mmHg 79%
    12:00 +22°C° 1.1 mm 1 mps 624 mmHg 77%
    13:00 +23°C° 1.1 mm 1 mps 623 mmHg 75%
    14:00 +22°C° 1.2 mm 1 mps 623 mmHg 79%
    15:00 +21°C° 1.2 mm 1 mps 622 mmHg 82%
    16:00 +21°C° 1.2 mm 1 mps 622 mmHg 85%
    17:00 +20°C° 0.4 mm 1 mps 622 mmHg 88%
    18:00 +19°C° 0.4 mm 1 mps 622 mmHg 91%
    19:00 +17°C° 0.4 mm 2 mps 622 mmHg 93%
    20:00 +17°C° 0.1 mm 2 mps 623 mmHg 93%
    21:00 +16°C° 0.1 mm 2 mps 623 mmHg 93%
    22:00 +16°C° 0.1 mm 2 mps 623 mmHg 92%
    23:00 +16°C° 0.2 mm 2 mps 622 mmHg 92%

    Day after tomorrow, 22 November, Wednesday

    Time Temperature Precipitation Wind Pressure Humidity
    00:00 +16°C° 0.2 mm 2 mps 622 mmHg 91%
    01:00 +16°C° 0.2 mm 2 mps 621 mmHg 91%
    02:00 +16°C° 0.2 mm 2 mps 621 mmHg 90%
    03:00 +15°C° 0.2 mm 2 mps 621 mmHg 89%
    04:00 +15°C° 0.2 mm 2 mps 621 mmHg 88%
    05:00 +16°C° 0.2 mm 1 mps 621 mmHg 86%
    06:00 +18°C° 0.2 mm 1 mps 622 mmHg 85%
    07:00 +19°C° 0.2 mm 1 mps 622 mmHg 83%
    08:00 +21°C° 0 mm 1 mps 623 mmHg 73%
    09:00 +23°C° 0 mm 2 mps 624 mmHg 63%
    10:00 +26°C° 0 mm 2 mps 624 mmHg 53%
    11:00 +26°C° 0 mm 2 mps 624 mmHg 50%
    12:00 +27°C° 0 mm 2 mps 623 mmHg 48%
    13:00 +28°C° 0 mm 2 mps 623 mmHg 45%
    14:00 +27°C° 0.1 mm 2 mps 622 mmHg 49%
    15:00 +26°C° 0.1 mm 2 mps 622 mmHg 53%
    16:00 +25°C° 0.1 mm 2 mps 621 mmHg 57%
    17:00 +23°C° 0.2 mm 2 mps 621 mmHg 64%
    18:00 +21°C° 0.2 mm 2 mps 621 mmHg 71%
    19:00 +20°C° 0.2 mm 1 mps 620 mmHg 78%
    20:00 +19°C° 0.1 mm 1 mps 621 mmHg 80%
    21:00 +19°C° 0.1 mm 1 mps 621 mmHg 82%
    22:00 +19°C° 0.1 mm 1 mps 621 mmHg 84%
    23:00 +18°C° 0.2 mm 1 mps 621 mmHg 86%

    23 November, Thursday

    Time Temperature Precipitation Wind Pressure Humidity
    00:00 +18°C° 0.2 mm 1 mps 621 mmHg 88%
    01:00 +18°C° 0.2 mm 1 mps 620 mmHg 90%
    02:00 +18°C° 0.4 mm 1 mps 620 mmHg 91%
    03:00 +16°C° 0.4 mm 1 mps 620 mmHg 92%
    04:00 +16°C° 0.4 mm 1 mps 620 mmHg 93%
    05:00 +18°C° 0.1 mm 1 mps 621 mmHg 91%
    06:00 +18°C° 0.1 mm 1 mps 622 mmHg 89%
    07:00 +19°C° 0.1 mm 1 mps 622 mmHg 87%
    08:00 +20°C° 0.2 mm 1 mps 623 mmHg 79%
    09:00 +22°C° 0.2 mm 1 mps 623 mmHg 71%
    10:00 +24°C° 0.2 mm 1 mps 623 mmHg 63%
    11:00 +24°C° 0.3 mm 1 mps 623 mmHg 62%
    12:00 +24°C° 0.3 mm 1 mps 622 mmHg 60%
    13:00 +25°C° 0.3 mm 1 mps 622 mmHg 58%
    14:00 +24°C° 0.9 mm 1 mps 621 mmHg 66%
    15:00 +23°C° 0.9 mm 1 mps 621 mmHg 74%
    16:00 +21°C° 0.9 mm 1 mps 620 mmHg 82%
    17:00 +21°C° 0.6 mm 1 mps 620 mmHg 85%
    18:00 +20°C° 0.6 mm 1 mps 621 mmHg 88%
    19:00 +19°C° 0.6 mm 1 mps 621 mmHg 91%
    20:00 +18°C° 0.2 mm 1 mps 621 mmHg 91%
    21:00 +18°C° 0.2 mm 1 mps 621 mmHg 92%
    22:00 +16°C° 0.2 mm 0 mps 621 mmHg 92%
    23:00 +16°C° 0 mm 0 mps 621 mmHg 91%

    24 November, Friday

    Time Temperature Precipitation Wind Pressure Humidity
    00:00 +16°C° 0 mm 0 mps 621 mmHg 91%
    01:00 +16°C° 0 mm 0 mps 620 mmHg 90%
    02:00 +16°C° 0 mm 1 mps 620 mmHg 91%
    03:00 +16°C° 0 mm 1 mps 620 mmHg 91%
    04:00 +16°C° 0 mm 1 mps 620 mmHg 92%
    05:00 +16°C° 0 mm 1 mps 621 mmHg 91%
    06:00 +16°C° 0 mm 0 mps 621 mmHg 90%
    07:00 +16°C° 0 mm 0 mps 622 mmHg 90%
    08:00 +20°C° 0.1 mm 1 mps 622 mmHg 84%
    09:00 +21°C° 0.1 mm 1 mps 623 mmHg 79%
    10:00 +22°C° 0.1 mm 1 mps 623 mmHg 73%
    11:00 +22°C° 0.5 mm 1 mps 623 mmHg 73%
    12:00 +23°C° 0.5 mm 1 mps 622 mmHg 73%
    13:00 +23°C° 0.5 mm 1 mps 622 mmHg 73%
    14:00 +22°C° 1.1 mm 1 mps 621 mmHg 76%
    15:00 +22°C° 1.1 mm 1 mps 621 mmHg 79%
    16:00 +21°C° 1.1 mm 1 mps 620 mmHg 83%
    17:00 +20°C° 1.3 mm 1 mps 621 mmHg 86%
    18:00 +19°C° 1.3 mm 1 mps 621 mmHg 89%
    19:00 +19°C° 1.3 mm 1 mps 621 mmHg 92%
    20:00 +18°C° 1 mm 1 mps 621 mmHg 93%
    21:00 +18°C° 1 mm 1 mps 621 mmHg 94%
    22:00 +18°C° 1 mm 1 mps 621 mmHg 95%
    23:00 +16°C° 0.6 mm 1 mps 621 mmHg 96%

    25 November, Saturday

    Time Temperature Precipitation Wind Pressure Humidity
    00:00 +16°C° 0.6 mm 1 mps 621 mmHg 96%
    01:00 +16°C° 0.6 mm 1 mps 620 mmHg 97%
    02:00 +16°C° 0.2 mm 1 mps 620 mmHg 97%
    03:00 +16°C° 0.2 mm 1 mps 620 mmHg 97%
    04:00 +16°C° 0.2 mm 1 mps 620 mmHg 97%
    05:00 +16°C° 0.2 mm 1 mps 621 mmHg 95%
    06:00 +18°C° 0.2 mm 1 mps 621 mmHg 94%
    07:00 +18°C° 0.2 mm 1 mps 622 mmHg 93%
    08:00 +19°C° 0.6 mm 1 mps 622 mmHg 88%
    09:00 +20°C° 0.6 mm 1 mps 623 mmHg 83%
    10:00 +21°C° 0.6 mm 2 mps 623 mmHg 78%
    11:00 +21°C° 1 mm 2 mps 622 mmHg 77%
    12:00 +21°C° 1 mm 2 mps 622 mmHg 75%
    13:00 +23°C° 1 mm 2 mps 621 mmHg 73%
    14:00 +21°C° 0.8 mm 2 mps 621 mmHg 76%
    15:00 +21°C° 0.8 mm 2 mps 620 mmHg 78%
    16:00 +20°C° 0.8 mm 2 mps 620 mmHg 81%
    17:00 +19°C° 0.2 mm 2 mps 620 mmHg 82%
    18:00 +18°C° 0.2 mm 2 mps 620 mmHg 84%
    19:00 +18°C° 0.2 mm 1 mps 620 mmHg 85%
    20:00 +16°C° 0.4 mm 1 mps 620 mmHg 85%
    21:00 +16°C° 0.4 mm 1 mps 621 mmHg 84%
    22:00 +16°C° 0.4 mm 1 mps 621 mmHg 84%
    23:00 +16°C° 0.6 mm 1 mps 621 mmHg 87%
    Show more